Tracking 30923 objects as of 1-Jul-2025
HD Live streaming from Space Station
objects crossing your sky now

DELTA 1 DEB

Track DELTA 1 DEB now!
10-day predictions


NORAD ID: 12230
Int'l Code: 1978-026BX
Perigee: 560.7 km
Apogee: 620.9 km
Inclination: 98.0 °
Period: 96.3 minutes
Semi major axis: 6961 km
RCS: 0.0615 m2 (small)
Launch date: March 5, 1978
Source: United States (US)
Launch site: AIR FORCE WESTERN TEST RANGE (AFWTR)

Note: This is SATELLITE DEBRIS
Your satellite tracking list
SL-12 R/B(2)
Track 1 satellite(s)




NASA's NSSDC Master Catalog

Two Line Element Set (TLE):
1 12230U 78026BX  25181.45453853  .00005637  00000-0  51696-3 0  9996
2 12230  97.9844 166.8353 0043263 166.7426 193.4942 14.94586261328295
Source of the keplerian elements: AFSPC